Meteo pe oră la Bolshoe Dumchino

Astăzi, 9 Mai, Duminică

Timp Temperatura Precipitaţii Vânt Presiune Umiditate
00:00 +3°C° 1.1 mm 7 m/s 733 mmHg 96%
01:00 +2°C° 1.1 mm 7 m/s 734 mmHg 96%
02:00 0°C° 1.1 mm 8 m/s 735 mmHg 97%
03:00 0°C° 1 mm 8 m/s 735 mmHg 97%
04:00 0°C° 1 mm 8 m/s 736 mmHg 97%
05:00 -1°C° 1 mm 8 m/s 737 mmHg 97%
06:00 0°C° 0.2 mm 8 m/s 738 mmHg 93%
07:00 +1°C° 0.2 mm 8 m/s 738 mmHg 90%
08:00 +2°C° 0.2 mm 7 m/s 739 mmHg 87%
09:00 +2°C° 0.1 mm 8 m/s 740 mmHg 83%
10:00 +4°C° 0.1 mm 8 m/s 740 mmHg 79%
11:00 +5°C° 0.1 mm 8 m/s 741 mmHg 75%
12:00 +5°C° 0 mm 8 m/s 741 mmHg 73%
13:00 +5°C° 0 mm 8 m/s 742 mmHg 71%
14:00 +6°C° 0 mm 7 m/s 743 mmHg 69%
15:00 +6°C° 0 mm 7 m/s 743 mmHg 68%
16:00 +7°C° 0 mm 6 m/s 743 mmHg 68%
17:00 +8°C° 0 mm 5 m/s 744 mmHg 67%
18:00 +7°C° 0 mm 5 m/s 744 mmHg 71%
19:00 +5°C° 0 mm 4 m/s 745 mmHg 75%
20:00 +4°C° 0 mm 3 m/s 745 mmHg 79%
21:00 +3°C° 0 mm 3 m/s 746 mmHg 80%
22:00 +3°C° 0 mm 3 m/s 746 mmHg 81%
23:00 +2°C° 0 mm 3 m/s 747 mmHg 82%

Mâine, 10 Mai, Luni

Timp Temperatura Precipitaţii Vânt Presiune Umiditate
00:00 +2°C° 0 mm 3 m/s 747 mmHg 82%
01:00 +1°C° 0 mm 3 m/s 748 mmHg 82%
02:00 +1°C° 0 mm 3 m/s 748 mmHg 81%
03:00 +1°C° 0 mm 3 m/s 748 mmHg 80%
04:00 +1°C° 0 mm 3 m/s 749 mmHg 79%
05:00 +1°C° 0 mm 3 m/s 749 mmHg 78%
06:00 +3°C° 0 mm 3 m/s 749 mmHg 72%
07:00 +5°C° 0 mm 4 m/s 750 mmHg 67%
08:00 +7°C° 0 mm 4 m/s 750 mmHg 62%
09:00 +9°C° 0 mm 5 m/s 750 mmHg 57%
10:00 +10°C° 0 mm 5 m/s 750 mmHg 52%
11:00 +11°C° 0 mm 6 m/s 750 mmHg 48%
12:00 +11°C° 0 mm 6 m/s 750 mmHg 47%
13:00 +11°C° 0 mm 6 m/s 750 mmHg 47%
14:00 +12°C° 0 mm 7 m/s 750 mmHg 46%
15:00 +11°C° 0 mm 6 m/s 749 mmHg 51%
16:00 +11°C° 0 mm 6 m/s 749 mmHg 56%
17:00 +12°C° 0 mm 5 m/s 749 mmHg 61%
18:00 +9°C° 0 mm 5 m/s 749 mmHg 67%
19:00 +7°C° 0 mm 4 m/s 750 mmHg 73%
20:00 +5°C° 0 mm 3 m/s 750 mmHg 79%
21:00 +5°C° 0 mm 4 m/s 750 mmHg 78%
22:00 +5°C° 0 mm 4 m/s 749 mmHg 78%
23:00 +4°C° 0 mm 4 m/s 749 mmHg 77%

Poimâine, 11 Mai, Marţi

Timp Temperatura Precipitaţii Vânt Presiune Umiditate
00:00 +4°C° 0 mm 4 m/s 749 mmHg 77%
01:00 +4°C° 0 mm 4 m/s 749 mmHg 77%
02:00 +3°C° 0 mm 4 m/s 749 mmHg 77%
03:00 +4°C° 0 mm 4 m/s 749 mmHg 78%
04:00 +3°C° 0 mm 5 m/s 749 mmHg 79%
05:00 +3°C° 0 mm 5 m/s 749 mmHg 79%
06:00 +5°C° 0 mm 6 m/s 749 mmHg 75%
07:00 +8°C° 0 mm 7 m/s 749 mmHg 71%
08:00 +9°C° 0 mm 7 m/s 749 mmHg 67%
09:00 +11°C° 0 mm 7 m/s 749 mmHg 67%
10:00 +12°C° 0 mm 7 m/s 749 mmHg 66%
11:00 +15°C° 0 mm 7 m/s 749 mmHg 66%
12:00 +15°C° 0 mm 7 m/s 749 mmHg 68%
13:00 +15°C° 0 mm 6 m/s 748 mmHg 70%
14:00 +15°C° 0 mm 6 m/s 748 mmHg 72%
15:00 +15°C° 0 mm 6 m/s 748 mmHg 75%
16:00 +14°C° 0 mm 5 m/s 748 mmHg 78%
17:00 +14°C° 0 mm 5 m/s 749 mmHg 81%
18:00 +13°C° 0 mm 4 m/s 748 mmHg 84%
19:00 +12°C° 0 mm 4 m/s 748 mmHg 87%
20:00 +11°C° 0 mm 3 m/s 748 mmHg 90%
21:00 +11°C° 0.6 mm 4 m/s 747 mmHg 91%
22:00 +12°C° 0.6 mm 4 m/s 747 mmHg 92%
23:00 +12°C° 0.6 mm 4 m/s 747 mmHg 93%

12 Mai, Miercuri

Timp Temperatura Precipitaţii Vânt Presiune Umiditate
00:00 +11°C° 0.3 mm 3 m/s 747 mmHg 93%
01:00 +10°C° 0.3 mm 2 m/s 746 mmHg 94%
02:00 +11°C° 0.3 mm 1 m/s 746 mmHg 95%
03:00 +11°C° 0.1 mm 1 m/s 746 mmHg 95%
04:00 +11°C° 0.1 mm 1 m/s 746 mmHg 96%
05:00 +11°C° 0.1 mm 1 m/s 746 mmHg 96%
06:00 +9°C° 1.6 mm 2 m/s 745 mmHg 96%
07:00 +9°C° 1.6 mm 3 m/s 745 mmHg 96%
08:00 +8°C° 1.6 mm 4 m/s 745 mmHg 96%
09:00 +9°C° 1.4 mm 3 m/s 745 mmHg 92%
10:00 +9°C° 1.4 mm 2 m/s 746 mmHg 89%
11:00 +10°C° 1.4 mm 1 m/s 746 mmHg 85%
12:00 +12°C° 0 mm 2 m/s 746 mmHg 79%
13:00 +12°C° 0 mm 3 m/s 746 mmHg 73%
14:00 +14°C° 0 mm 3 m/s 746 mmHg 67%
15:00 +14°C° 0 mm 3 m/s 746 mmHg 70%
16:00 +13°C° 0 mm 3 m/s 746 mmHg 73%
17:00 +13°C° 0 mm 3 m/s 746 mmHg 76%
18:00 +12°C° 0 mm 3 m/s 746 mmHg 80%
19:00 +11°C° 0 mm 3 m/s 745 mmHg 83%
20:00 +10°C° 0 mm 3 m/s 745 mmHg 86%
21:00 +10°C° 0 mm 3 m/s 745 mmHg 88%
22:00 +10°C° 0 mm 3 m/s 744 mmHg 90%
23:00 +10°C° 0 mm 3 m/s 744 mmHg 93%

13 Mai, Joi

Timp Temperatura Precipitaţii Vânt Presiune Umiditate
00:00 +10°C° 0 mm 3 m/s 743 mmHg 94%
01:00 +10°C° 0 mm 3 m/s 743 mmHg 95%
02:00 +10°C° 0 mm 3 m/s 743 mmHg 96%
03:00 +10°C° 0 mm 3 m/s 742 mmHg 97%
04:00 +11°C° 0 mm 3 m/s 742 mmHg 97%
05:00 +11°C° 0 mm 3 m/s 742 mmHg 98%
06:00 +12°C° 0 mm 4 m/s 742 mmHg 93%
07:00 +13°C° 0 mm 5 m/s 742 mmHg 89%
08:00 +14°C° 0 mm 5 m/s 742 mmHg 85%
09:00 +15°C° 0 mm 5 m/s 742 mmHg 78%
10:00 +16°C° 0 mm 6 m/s 742 mmHg 72%
11:00 +17°C° 0 mm 6 m/s 742 mmHg 66%
12:00 +19°C° 0.1 mm 6 m/s 742 mmHg 64%
13:00 +19°C° 0.1 mm 6 m/s 742 mmHg 62%
14:00 +20°C° 0.1 mm 6 m/s 741 mmHg 61%
15:00 +19°C° 0.1 mm 5 m/s 742 mmHg 66%
16:00 +18°C° 0.1 mm 4 m/s 742 mmHg 70%
17:00 +18°C° 0.1 mm 3 m/s 742 mmHg 75%
18:00 +16°C° 0 mm 3 m/s 742 mmHg 79%
19:00 +14°C° 0 mm 3 m/s 742 mmHg 82%
20:00 +13°C° 0 mm 3 m/s 742 mmHg 86%
21:00 +13°C° 0 mm 3 m/s 742 mmHg 87%
22:00 +12°C° 0 mm 3 m/s 741 mmHg 88%
23:00 +12°C° 0 mm 3 m/s 741 mmHg 89%

14 Mai, Vineri

Timp Temperatura Precipitaţii Vânt Presiune Umiditate
00:00 +12°C° 0 mm 3 m/s 741 mmHg 89%
01:00 +12°C° 0 mm 3 m/s 741 mmHg 89%
02:00 +12°C° 0 mm 4 m/s 741 mmHg 88%
03:00 +12°C° 0 mm 4 m/s 740 mmHg 88%
04:00 +13°C° 0 mm 4 m/s 740 mmHg 88%
05:00 +13°C° 0 mm 5 m/s 740 mmHg 87%
06:00 +14°C° 0.4 mm 5 m/s 740 mmHg 86%
07:00 +14°C° 0.4 mm 6 m/s 740 mmHg 86%
08:00 +15°C° 0.4 mm 6 m/s 739 mmHg 85%
09:00 +16°C° 0.2 mm 6 m/s 739 mmHg 83%
10:00 +17°C° 0.2 mm 6 m/s 739 mmHg 81%
11:00 +18°C° 0.2 mm 7 m/s 739 mmHg 79%
12:00 +19°C° 0.1 mm 6 m/s 740 mmHg 79%
13:00 +19°C° 0.1 mm 6 m/s 740 mmHg 80%
14:00 +19°C° 0.1 mm 5 m/s 740 mmHg 80%
15:00 +19°C° 0 mm 5 m/s 740 mmHg 80%
16:00 +19°C° 0 mm 5 m/s 740 mmHg 79%
17:00 +19°C° 0 mm 4 m/s 740 mmHg 79%
18:00 +18°C° 0 mm 4 m/s 740 mmHg 82%
19:00 +17°C° 0 mm 3 m/s 740 mmHg 86%
20:00 +15°C° 0 mm 2 m/s 740 mmHg 90%
21:00 +15°C° 0 mm 2 m/s 740 mmHg 90%
22:00 +14°C° 0 mm 2 m/s 740 mmHg 90%
23:00 +14°C° 0 mm 1 m/s 740 mmHg 91%
Arată mai mult

Formular de consimțământ

Meteoprog și furnizorii noștri de servicii pot stoca și accesa date personale, precum cookies, identificatori de dispozitiv sau alte tehnologii similare pe dispozitivul dumneavoastră și procesa astfel de date pentru a personaliza conținutul și reclamele, dar și pentru a oferi caracteristici de social media și pentru a analiza traficul.

  • Stocarea și/sau accesarea informațiilor pe dispozitivul dumneavoastră

    Cookies, identificatori de dispozitiv sau alte informații pot fi stocate sau accesate pe dispozitiv în scopurile indicate mai sus.

  • Reclame și conținut personalizat, evaluarea reclamelor și a conținutului, informații despre audiențe și dezvoltarea produselor

    Reclamele și conținutul pot fi personalizate pe baza unui profil. Pot fi adăugate date suplimentare pentru a personaliza mai bine reclamele și conținutul. Performanța reclamelor și conținutului poate fi măsurată. Pot fi obținute informații despre utilizatorii care au văzut reclamele și conținutul. Aceste date pot fi utilizate pentru a dezvolta sau îmbunătăți experiența utilizatorilor, sistemele și software-ul.

Dând clic pe ‘Sunt de acord’, permiteți utilizarea cookie-urilor menționate, a identificatorilor de dispozitiv, balizelor web sau altor tehnologii similare. Setările pot fi modificate din browser-ul dispozitivului dumneavoastră.

În anumite scopuri, interesele legitime pot prima asupra consimțământului. Puteți citi mai multe informații în acest sens în Politica privind Confidențialitatea Datelor și Cookie.